Weather History for KAIA - January, 2014

Change the Weather History Date:

Sunday, January 26, 2014

  Actual Average Record
Temperature  
Mean Temperature 28 °F 25 °F  
Max Temperature 46 °F 38 °F 65 °F (2002)
Min Temperature 10 °F 11 °F -25 °F (1950)
Degree Days  
Heating Degree Days 37 40  
Month to date heating degree days 178 1062  
Since 1 July heating degree days 3267 4144  
Cooling Degree Days 0 0  
Month to date cooling degree days 0 0  
Year to date cooling degree days 0 0  
Moisture  
Dew Point 17 °F    
Average Humidity 69    
Maximum Humidity 88    
Minimum Humidity 49    
Precipitation  
Precipitation T in 0.01 in 0.25 in (1899)
Month to date precipitation 0.02 0.14  
Year to date precipitation 0.02 0.14  
Sea Level Pressure  
Sea Level Pressure 29.97 in    
Wind  
Wind Speed 17 mph (NNW)    
Max Wind Speed 37 mph    
Max Gust Speed 48 mph    
Visibility 9 miles    
Events Snow    
T = Trace of Precipitation, MM = Missing Value Source: NWS Daily Summary

Daily Weather History Graph

Daily Weather History Graph

Search for Another Location

Airport or City:

Trip Planner

Search our weather history database for the weather conditions in past years. The results will help you decide how hot, cold, wet, or windy it might be!

Date:

Astronomy

Jan. 26, 2014 Rise Set
Actual Time 7:09 AM MST 4:58 PM MST
Civil Twilight 6:39 AM MST 5:28 PM MST
Nautical Twilight 6:05 AM MST 6:02 PM MST
Astronomical Twilight 5:32 AM MST 6:35 PM MST
Moon 2:49 AM MST (1/26) 12:49 PM MST (1/26)
Length of Visible Light 10h 48m
Length of Day
9h 48m
Waning Crescent, 23% of the Moon is Illuminated
Jan 26
Waning Crescent
Jan 30
New
Feb 6
First Quarter
Feb 14
Full
Feb 22
Last Quarter

Hourly Weather History & Observations

Time (MST) Temp. Windchill Dew Point Humidity Pressure Visibility Wind Dir Wind Speed Gust Speed Precip Events Conditions
12:53 AM 42.1 °F 33.9 °F 24.1 °F 49% 29.78 in 10.0 mi WNW 17.3 mph 26.5 mph N/A   Clear
1:53 AM 39.0 °F 32.3 °F 26.1 °F 60% 29.79 in 10.0 mi WNW 10.4 mph - N/A   Clear
3:53 AM 30.0 °F 20.5 °F 24.1 °F 79% 29.81 in 10.0 mi WNW 11.5 mph - N/A   Clear
4:53 AM 30.0 °F 20.0 °F 25.0 °F 82% 29.83 in 10.0 mi West 12.7 mph - N/A   Clear
5:53 AM 28.9 °F 19.8 °F 24.1 °F 82% 29.81 in 10.0 mi WNW 10.4 mph - N/A   Clear
6:53 AM 28.9 °F 18.6 °F 24.1 °F 82% 29.81 in 10.0 mi WNW 12.7 mph - N/A   Clear
7:53 AM 35.1 °F 25.2 °F 25.0 °F 67% 29.78 in 10.0 mi WNW 16.1 mph - N/A   Clear
8:53 AM 39.9 °F 31.1 °F 26.1 °F 58% 29.78 in 10.0 mi WNW 17.3 mph - N/A   Clear
9:53 AM 44.1 °F 35.4 °F 27.0 °F 51% 29.77 in 10.0 mi NW 21.9 mph 31.1 mph N/A   Overcast
10:53 AM 43.0 °F 32.7 °F 28.0 °F 56% 29.78 in 10.0 mi NW 28.8 mph 34.5 mph N/A   Overcast
11:53 AM 42.1 °F 32.8 °F 26.1 °F 53% 29.79 in 10.0 mi NW 21.9 mph 34.5 mph N/A   Overcast
12:53 PM 41.0 °F 31.1 °F 27.0 °F 57% 29.80 in 10.0 mi NNW 23.0 mph 34.5 mph N/A   Unknown
1:20 PM 28.9 °F 14.5 °F 24.1 °F 82% 29.83 in 4.0 mi NNE 25.3 mph 38.0 mph 0.00 in Snow Light Snow
1:47 PM 26.6 °F 10.6 °F 21.2 °F 80% 29.87 in 5.0 mi NNE 28.8 mph 34.5 mph 0.00 in Snow Light Snow
1:53 PM 27.0 °F 11.3 °F 19.9 °F 75% 29.94 in 7.0 mi North 27.6 mph 36.8 mph 0.00 in   Overcast
2:12 PM 26.1 °F 10.1 °F 21.0 °F 81% 29.90 in 3.0 mi North 27.6 mph 34.5 mph 0.00 in Snow Light Snow
2:20 PM 26.1 °F 12.0 °F 21.0 °F 81% 29.92 in 2.5 mi North 20.7 mph 32.2 mph 0.00 in Snow Light Snow
2:27 PM 26.1 °F 13.1 °F 21.0 °F 81% 29.93 in 4.0 mi North 17.3 mph 27.6 mph 0.00 in Snow Light Snow
2:53 PM 25.0 °F 11.7 °F 21.0 °F 85% 30.03 in 10.0 mi North 17.3 mph - 0.00 in   Overcast
3:53 PM 25.0 °F 9.2 °F 18.0 °F 75% 30.06 in 10.0 mi North 25.3 mph 32.2 mph N/A   Overcast
4:12 PM 21.9 °F 5.5 °F 10.9 °F 63% 30.00 in 10.0 mi North 24.2 mph 31.1 mph N/A   Overcast
4:53 PM 19.0 °F 2.0 °F 5.0 °F 54% 30.15 in 10.0 mi North 23.0 mph 33.4 mph N/A   Overcast
5:53 PM 16.0 °F -2.1 °F 5.0 °F 62% 30.22 in 10.0 mi North 23.0 mph 29.9 mph N/A   Overcast
6:53 PM 14.0 °F -0.2 °F 5.0 °F 67% 30.27 in 10.0 mi North 12.7 mph - N/A   Overcast
7:53 PM 12.9 °F -2.2 °F 1.9 °F 62% 30.27 in 10.0 mi North 13.8 mph - N/A   Mostly Cloudy
8:53 PM 12.0 °F -3.4 °F -0.0 °F 59% 30.26 in 10.0 mi North 13.8 mph - N/A   Overcast
9:53 PM 10.9 °F -3.4 °F -0.0 °F 61% 30.27 in 10.0 mi North 11.5 mph - N/A   Mostly Cloudy
10:53 PM 10.9 °F -3.4 °F -0.9 °F 59% 30.29 in 10.0 mi North 11.5 mph - N/A   Scattered Clouds
11:53 PM 10.0 °F -2.9 °F -2.9 °F 56% 30.30 in 10.0 mi North 9.2 mph - N/A   Mostly Cloudy